Cloud_Cover
5 5 5 1 2 5 5 2 1 0 0 0 0 0 15 59 61 84 100 94 100 100 100 100 100 100 100 100 100 100 16 44 100 64 100 80 100 90 11 91 93 100 42
5 5 2 0 0 0 0 0 0 0 0 0 0 12 31 49 75 73 40 89 54 89 100 100 100 100 100 100 100 100 49 25 100 100 10 43 100 91 65 100 100 100 97
5 4 0 0 0 4 0 0 0 0 0 0 0 0 16 57 70 92 97 89 33 42 50 100 100 100 100 100 100 100 100 100 100 100 50 32 59 97 100 96 100 100 98
5 0 0 3 3 0 0 0 0 0 0 0 0 11 4 8 7 20 36 36 20 42 29 92 100 100 100 100 100 100 65 99 100 97 100 74 65 53 100 90 100 100 100
0 0 1 0 0 0 0 0 0 0 0 0 0 1 26 20 2 0 0 0 3 34 96 57 95 100 100 100 100 100 99 100 100 71 68 99 54 39 50 90 100 100 100
0 4 0 0 0 0 0 0 0 0 0 0 0 0 0 0 0 0 1 0 1 0 0 12 100 100 100 100 100 100 88 90 100 61 40 94 100 100 100 9 95 100 99
0 1 0 0 0 1 9 22 13 13 4 6 9 7 3 3 23 55 16 4 9 4 5 3 93 100 100 100 100 100 100 100 100 69 34 91 100 75 100 97 100 100 98
4 0 0 2 1 48 87 83 88 39 24 21 26 21 37 91 23 63 54 53 62 38 8 14 50 5 0 18 46 62 100 100 100 100 100 100 100 100 100 100 100 58 92
4 3 8 30 20 43 79 100 89 67 76 79 97 18 76 32 10 26 99 100 92 58 64 36 30 91 38 14 22 45 59 57 83 80 100 100 100 100 72 86 75 96 98
34 22 30 44 63 98 42 95 68 100 87 100 100 99 100 76 7 94 100 100 100 100 100 89 4 28 41 92 49 82 93 0 53 42 56 71 53 100 51 58 91 100 100
69 26 72 100 98 65 91 92 100 98 100 36 88 100 98 74 100 100 100 100 100 100 100 97 66 21 33 42 58 60 31 37 65 92 73 98 99 100 100 71 86 74 100
54 66 100 100 100 100 74 55 69 100 46 75 69 98 51 93 100 100 100 100 100 100 100 94 81 92 85 85 100 88 38 95 65 92 90 99 100 100 100 100 97 72 77
22 27 68 85 100 97 63 74 48 98 100 84 100 100 100 99 100 100 100 100 93 99 100 100 100 100 100 100 97 99 100 100 100 100 100 100 100 100 100 100 99 100 100
0 0 1 2 98 60 38 76 100 100 100 100 100 100 100 100 100 100 100 100 100 100 100 100 100 100 100 100 100 100 100 100 100 100 100 100 100 100 100 96 65 54 100
0 0 0 45 91 53 59 93 100 99 99 100 100 100 100 100 100 100 100 100 100 100 100 100 100 100 100 100 100 100 100 100 100 100 100 100 100 100 100 100 56 13 37
0 0 0 27 45 100 100 57 74 33 58 86 100 100 100 100 100 100 100 100 100 100 100 100 100 100 100 100 100 100 100 100 100 100 100 100 100 100 100 100 100 57 23
0 0 0 46 100 100 100 100 97 12 38 45 84 76 100 100 100 100 100 100 100 100 100 100 100 100 100 100 100 100 100 100 100 100 100 100 100 100 100 98 96 73 91
0 0 0 20 95 100 100 100 99 100 100 78 34 88 92 100 100 100 100 100 100 100 100 98 94 70 84 100 92 100 100 100 100 100 100 100 100 100 100 92 60 100 92
0 0 0 0 0 22 82 96 79 96 96 94 88 82 88 100 100 100 100 100 100 100 100 100 100 100 100 98 100 100 100 100 100 100 99 100 100 100 100 99 100 100 100
0 0 0 0 0 0 0 4 19 57 36 0 4 40 100 100 100 100 100 100 100 100 100 100 100 100 100 100 100 100 100 100 100 100 99 100 100 98 100 100 100 100 100
2 0 0 5 5 3 5 5 5 4 2 0 0 0 64 100 100 100 100 100 100 100 100 100 100 100 100 100 100 100 100 100 100 100 100 100 100 100 100 100 100 100 100
5 5 6 5 5 5 5 5 5 4 5 3 5 4 0 95 100 87 100 100 100 100 100 100 100 100 100 100 100 100 100 100 100 100 100 100 100 100 100 100 100 100 99
28 35 44 34 12 15 6 5 5 5 5 5 5 5 5 5 94 100 100 100 100 100 100 100 100 100 100 100 100 100 100 100 100 100 100 100 100 100 100 100 100 100 100
100 88 73 60 66 41 59 70 60 25 5 5 5 5 5 5 5 80 100 100 100 100 100 100 100 99 100 100 100 100 100 100 100 100 100 100 100 100 100 100 100 100 100
100 98 100 100 100 100 100 100 100 100 93 70 62 49 48 33 37 32 14 100 100 100 100 100 100 100 100 100 100 100 100 100 100 100 100 100 100 100 100 100 100 100 100
100 83 100 100 100 100 98 100 100 100 100 100 90 66 83 76 57 71 62 46 42 98 100 100 100 100 100 100 85 90 100 100 100 100 100 99 100 100 100 100 99 100 100